Date,TemperatureHighF,TemperatureAvgF,TemperatureLowF,DewpointHighF,DewpointAvgF,DewpointLowF,HumidityHigh,HumidityAvg,HumidityLow,PressureMaxIn,PressureMinIn,WindSpeedMaxMPH,WindSpeedAvgMPH,GustSpeedMaxMPH,PrecipitationSumIn
2013-1-1,30,26,22,19,16,11,74,66,58,30.13,30.03,11,6,15,0.00
2013-1-2,28,23,16,18,12,5,72,64,54,30.17,30.10,10,5,13,0.00
2013-1-3,32,27,16,26,20,6,81,72,62,30.19,30.06,13,6,18,0.00
2013-1-4,36,30,23,26,21,16,80,71,57,30.19,30.09,16,10,25,0.00
2013-1-5,36,31,21,31,25,16,91,78,63,30.22,29.93,11,5,14,0.03
2013-1-6,37,34,31,32,27,23,84,75,61,30.28,29.86,17,9,23,0.00
2013-1-7,36,30,20,25,20,16,84,70,50,30.33,30.10,12,5,18,0.00
2013-1-8,40,33,26,29,24,21,81,70,57,30.17,30.02,10,4,15,0.00
2013-1-9,46,41,32,34,31,26,78,66,51,30.45,29.99,14,9,19,0.01
2013-1-10,41,33,26,38,28,23,92,81,54,30.49,29.92,11,4,17,0.18
2013-1-11,54,50,40,51,46,38,94,86,76,29.91,29.65,13,7,20,0.32
2013-1-12,56,48,37,47,41,33,86,75,69,29.92,29.70,13,6,20,0.07
2013-1-13,37,31,22,34,27,15,93,85,73,30.17,29.78,13,7,18,0.09
2013-1-14,25,22,19,16,15,13,79,72,64,30.42,30.17,12,4,16,0.00
2013-1-15,30,25,16,18,16,11,82,69,57,30.40,30.08,6,1,9,0.00
2013-1-16,37,29,19,30,21,14,84,71,48,30.08,29.81,15,7,25,0.00
2013-1-17,38,30,25,30,18,10,76,60,49,30.34,30.00,18,12,23,0.00
2013-1-18,42,33,25,27,20,12,72,58,49,30.38,29.89,12,8,23,0.00
2013-1-19,47,43,33,36,30,17,74,61,46,29.89,29.66,24,10,33,0.00
2013-1-20,32,20,17,16,8,4,72,61,48,30.24,29.78,24,13,34,0.00
2013-1-21,20,13,8,9,4,-3,76,66,55,30.19,30.05,18,12,25,0.00
2013-1-22,14,10,7,7,1,-5,76,67,56,30.33,30.19,17,11,26,0.00
2013-1-23,21,16,14,18,9,2,88,72,56,30.29,30.05,19,8,25,0.00
2013-1-24,18,14,9,11,4,-1,85,64,44,30.61,30.21,17,2,26,0.00
2013-1-25,28,22,16,22,14,3,83,72,56,30.39,29.96,15,6,20,0.00
2013-1-26,27,26,22,20,16,13,77,68,60,30.40,30.07,15,6,19,0.00
2013-1-27,36,28,22,34,21,15,90,75,64,30.38,29.93,11,5,15,0.09
2013-1-28,50,42,36,48,40,33,96,94,90,29.94,29.79,13,5,19,0.41
2013-1-29,60,55,39,57,53,37,97,92,84,29.84,29.33,14,7,22,0.46
2013-1-30,50,39,25,50,37,18,97,92,73,29.49,29.08,19,8,31,0.64
2013-1-31,24,18,14,19,11,6,83,72,61,30.02,29.50,19,12,30,0.00
2013-2-1,18,12,10,13,5,2,81,73,63,30.31,30.03,16,8,25,0.00
2013-2-2,25,18,15,22,15,10,91,86,80,30.17,29.95,12,3,13,0.00
2013-2-3,24,20,15,16,13,11,87,74,60,30.01,29.90,16,8,21,0.00
2013-2-4,27,23,19,20,18,14,88,82,74,30.01,29.83,8,2,10,0.01
2013-2-5,31,25,16,27,20,12,93,82,65,30.02,29.77,13,6,17,0.00
2013-2-6,34,30,25,24,19,16,73,63,54,30.23,30.02,12,4,14,0.08
2013-2-7,40,33,29,32,27,23,94,80,64,30.14,29.79,7,3,11,0.25
2013-2-8,33,31,27,32,24,19,94,77,65,30.34,29.81,12,7,18,0.07
2013-2-9,36,28,18,23,20,14,86,71,58,30.39,30.10,9,4,17,0.01
2013-2-10,50,38,29,45,31,20,91,76,67,30.09,29.49,14,6,21,0.13
2013-2-11,50,35,30,43,26,20,79,68,62,29.96,29.48,19,14,31,0.00
2013-2-12,30,29,27,23,21,19,78,73,69,30.06,29.91,11,6,17,0.00
2013-2-13,43,33,23,31,26,19,89,74,57,29.91,29.68,6,3,12,0.00
2013-2-14,40,36,33,32,29,23,85,74,63,29.90,29.62,16,9,27,0.00
2013-2-15,34,28,25,27,18,10,90,66,48,30.14,29.90,15,8,18,0.00
2013-2-16,26,20,17,16,10,4,82,64,51,30.11,30.05,16,10,23,0.00
2013-2-17,28,21,16,16,12,7,83,67,47,30.19,30.07,6,2,12,0.01
2013-2-18,52,39,24,44,28,11,89,64,52,30.06,29.37,16,9,27,0.15
2013-2-19,37,21,17,35,15,8,90,77,68,30.08,29.43,17,12,25,0.12
2013-2-20,26,21,17,18,14,9,80,73,66,30.31,30.07,17,12,23,0.00
2013-2-21,27,24,22,18,16,14,75,71,66,30.35,30.03,15,5,22,0.00
2013-2-22,34,28,22,32,24,15,93,84,69,30.06,29.80,12,7,19,0.00
2013-2-23,30,28,27,24,20,17,79,72,65,29.92,29.85,12,8,19,0.00
2013-2-24,34,29,24,25,23,19,87,76,68,30.13,29.91,9,4,13,0.00
2013-2-25,41,31,19,24,21,16,89,68,46,30.18,29.98,6,2,10,0.00
2013-2-26,36,33,31,32,26,21,94,78,55,29.97,29.43,17,6,27,0.28
2013-2-27,35,34,33,34,32,31,95,95,92,29.59,29.43,6,2,9,0.50
2013-2-28,36,34,31,33,29,24,95,82,75,29.96,29.59,14,8,19,0.03
2013-3-1,32,30,26,24,21,16,78,71,65,30.12,29.96,12,4,17,0.00
2013-3-2,30,27,23,22,18,12,74,67,60,30.12,30.07,13,5,18,0.00
2013-3-3,30,26,23,18,15,10,72,62,44,30.09,30.04,14,5,18,0.00
2013-3-4,35,28,18,19,15,10,82,59,36,30.13,30.01,7,3,11,0.00
2013-3-5,32,30,27,27,23,19,93,78,59,30.00,29.77,13,5,19,0.00
2013-3-6,35,32,27,31,28,24,91,85,74,30.23,29.90,11,6,15,0.26
2013-3-7,35,32,25,30,27,21,91,81,68,30.41,30.22,9,4,12,0.01
2013-3-8,41,30,18,23,20,15,89,67,45,30.48,30.33,5,1,8,0.00
2013-3-9,45,42,30,32,32,20,70,65,60,30.32,29.85,8,6,13,0.00
2013-3-10,58,50,41,47,40,32,91,70,55,29.84,29.61,13,5,26,0.38
2013-3-11,52,42,34,49,40,30,95,90,84,29.72,29.48,12,7,28,0.19
2013-3-12,36,33,28,31,27,22,91,79,61,29.92,29.72,15,8,20,0.01
2013-3-13,31,28,25,24,17,11,87,63,44,30.27,29.92,18,14,26,0.00
2013-3-14,37,32,30,29,20,14,85,61,41,30.27,30.08,11,5,14,0.00
2013-3-15,38,35,30,34,31,27,92,86,76,30.08,29.71,8,4,11,0.05
2013-3-16,36,32,29,34,27,20,92,81,65,30.08,29.65,11,5,16,0.01
2013-3-17,36,32,28,23,18,15,71,58,47,30.19,30.02,13,6,19,0.00
2013-3-18,35,31,26,32,26,15,93,81,63,30.02,29.55,16,8,26,0.05
2013-3-19,32,26,21,18,14,12,71,61,48,30.00,29.72,14,12,27,0.00
2013-3-20,29,22,18,16,11,7,78,62,55,30.02,29.96,14,11,21,0.00
2013-3-21,29,26,20,18,16,9,82,66,58,30.01,29.91,16,10,24,0.00
2013-3-22,32,29,24,21,18,15,81,63,51,30.05,29.99,11,5,14,0.00
2013-3-23,35,29,22,24,22,18,87,73,57,30.11,29.99,10,3,13,0.00
2013-3-24,38,32,27,24,22,20,77,66,51,30.00,29.59,11,4,17,0.00
2013-3-25,36,33,31,29,26,20,79,73,64,29.98,29.60,14,8,19,0.00
2013-3-26,36,35,32,30,29,27,90,80,71,30.18,29.98,13,7,17,0.00
2013-3-27,40,36,33,32,29,23,88,74,50,30.26,30.18,13,5,16,0.00
2013-3-28,43,36,29,31,27,20,82,70,40,30.30,30.25,9,3,12,0.00
2013-3-29,45,36,24,30,22,15,87,62,30,30.30,30.20,9,2,12,0.00
2013-3-30,58,43,23,35,26,19,85,56,32,30.21,29.80,9,3,14,0.00
2013-3-31,53,45,36,42,36,30,95,74,53,29.80,29.63,18,7,20,0.01
2013-4-1,37,32,27,31,17,11,79,55,42,30.11,29.79,17,9,21,0.00
2013-4-2,36,32,25,22,16,13,69,52,40,30.27,30.11,15,8,21,0.00
2013-4-3,37,31,23,23,17,13,80,59,38,30.43,30.27,12,4,18,0.00
2013-4-4,53,41,26,32,18,15,73,43,23,30.30,29.90,10,4,15,0.00
2013-4-5,45,37,33,33,27,20,82,66,44,30.17,29.92,16,6,22,0.00
2013-4-6,67,52,33,40,29,23,77,45,29,30.12,29.55,18,10,27,0.00
2013-4-7,64,46,41,46,36,31,86,69,38,29.94,29.54,17,7,23,0.02
2013-4-8,64,45,40,55,38,31,93,78,62,29.94,29.59,17,6,27,0.19
2013-4-9,72,50,40,58,45,38,94,83,60,29.97,29.75,10,4,15,0.02
2013-4-10,50,44,39,46,40,36,93,89,84,29.91,29.75,17,5,19,0.41
2013-4-11,44,42,40,42,40,38,93,91,87,29.83,29.53,17,9,24,1.30
2013-4-12,43,40,38,40,35,30,96,84,71,29.79,29.53,14,8,22,0.06
2013-4-13,41,38,34,32,29,27,81,70,57,29.97,29.79,12,6,18,0.00
2013-4-14,60,37,32,44,31,28,86,80,54,29.99,29.73,12,2,19,0.00
2013-4-15,64,57,46,56,51,43,90,81,70,29.85,29.77,7,5,14,0.29
2013-4-16,46,46,46,28,28,28,49,49,49,30.15,30.15,5,5,5,0.00
2013-4-17,53,49,44,46,43,40,93,83,64,30.07,29.81,16,8,19,0.64
2013-4-18,69,57,44,64,54,41,97,91,82,29.81,29.36,17,8,28,1.79
2013-4-19,44,39,35,41,31,26,90,73,64,29.83,29.45,18,13,27,0.05
2013-4-20,39,34,29,28,19,13,77,54,36,30.44,29.84,20,9,25,0.00
2013-4-21,52,40,27,29,21,15,76,49,27,30.54,30.33,12,5,20,0.00
2013-4-22,65,52,37,34,30,26,74,47,23,30.33,30.04,9,4,18,0.00
2013-4-23,66,50,38,47,40,34,93,72,48,30.04,29.83,14,6,17,0.54
2013-4-24,45,40,36,36,29,16,92,68,33,30.10,29.83,15,8,21,0.09
2013-4-25,48,44,40,37,32,28,82,63,48,30.33,30.04,15,6,18,0.03
2013-4-26,65,51,35,41,34,27,75,53,36,30.35,30.23,14,6,18,0.00
2013-4-27,69,58,42,45,39,31,80,53,25,30.27,29.97,10,3,19,0.00
2013-4-28,60,53,47,51,47,44,92,81,59,29.97,29.79,8,3,11,0.02
2013-4-29,71,59,43,53,49,41,97,72,48,29.89,29.77,10,5,19,0.00
2013-4-30,82,70,58,60,55,50,82,60,39,29.92,29.78,14,9,20,0.22
2013-5-1,70,68,67,58,58,57,71,69,66,29.94,29.92,5,4,6,0.00